ACA98 CYYT-EGLL

Flight info

Callsign ACA98
Flight time N/A
Altitude 39000
Route MUSAK DCT 49N050W DCT 51N040W 52N030W 52N020W DCT MALOT/N0485F390 DCT GISTI
Aircraft A35K/H-SDE2E3GHIJ3J4J5LM1ORWXY/LB1D1

Departure

Time 2026-04-22 03:05
Airport St. John's International Airport (CYYT)

Arrival

Time N/A
Airport London Heathrow Airport (EGLL)
Time Latitude Longitude Altitude Speed Heading
2026-04-22 02:58 47.61327 -52.73965 481 ft 0 kts 334°
2026-04-22 03:00 47.61327 -52.73964 481 ft 0 kts 334°
2026-04-22 03:00 47.61340 -52.73979 473 ft 10 kts 321°
2026-04-22 03:00 47.61414 -52.74147 475 ft 29 kts 294°
2026-04-22 03:00 47.61500 -52.74383 476 ft 8 kts
2026-04-22 03:01 47.61515 -52.74355 475 ft 5 kts 47°
2026-04-22 03:01 47.61571 -52.74272 475 ft 17 kts 35°
2026-04-22 03:01 47.61669 -52.74314 479 ft 19 kts 324°
2026-04-22 03:01 47.61788 -52.74480 477 ft 27 kts 316°
2026-04-22 03:02 47.61948 -52.74687 481 ft 31 kts 321°
2026-04-22 03:02 47.62013 -52.74753 481 ft 0 kts 336°
2026-04-22 03:02 47.62019 -52.74750 480 ft 0 kts
2026-04-22 03:02 47.62037 -52.74721 481 ft 8 kts 64°
2026-04-22 03:03 47.62063 -52.74668 482 ft 8 kts 42°
2026-04-22 03:03 47.62115 -52.74622 482 ft 9 kts 24°
2026-04-22 03:03 47.62159 -52.74643 481 ft 11 kts 330°
2026-04-22 03:03 47.62273 -52.74780 483 ft 28 kts 319°
2026-04-22 03:04 47.62421 -52.74969 484 ft 28 kts 318°
2026-04-22 03:04 47.62535 -52.75168 480 ft 13 kts 341°
2026-04-22 03:04 47.62544 -52.75147 484 ft 1 kts 108°
2026-04-22 03:04 47.62531 -52.75120 482 ft 12 kts 127°
2026-04-22 03:05 47.62294 -52.74803 482 ft 90 kts 139°
2026-04-22 03:05 47.61597 -52.73914 481 ft 171 kts 141°
2026-04-22 03:05 47.60543 -52.72692 999 ft 201 kts 138°
2026-04-22 03:05 47.59730 -52.71043 1988 ft 201 kts 103°
2026-04-22 03:06 47.59278 -52.68980 2387 ft 225 kts 105°
2026-04-22 03:06 47.58490 -52.66842 2788 ft 249 kts 117°
2026-04-22 03:06 47.57541 -52.64671 3607 ft 251 kts 118°
2026-04-22 03:06 47.56609 -52.62513 4547 ft 246 kts 120°
2026-04-22 03:07 47.55764 -52.60298 5362 ft 247 kts 118°
2026-04-22 03:07 47.55199 -52.57871 6064 ft 256 kts 104°
2026-04-22 03:07 47.55230 -52.55157 6621 ft 274 kts 81°
2026-04-22 03:07 47.56098 -52.52603 7230 ft 288 kts 59°
2026-04-22 03:08 47.57470 -52.50358 7851 ft 299 kts 47°
2026-04-22 03:08 47.59098 -52.48345 8506 ft 307 kts 42°
2026-04-22 03:08 47.60823 -52.46466 9108 ft 314 kts 40°
2026-04-22 03:08 47.62626 -52.44565 9754 ft 321 kts 40°
2026-04-22 03:09 47.64454 -52.42597 10273 ft 330 kts 41°
2026-04-22 03:09 47.66333 -52.40493 10517 ft 348 kts 42°